Time,TemperatureF,DewpointF,PressureIn,WindDirection,WindDirectionDegrees,WindSpeedMPH,WindSpeedGustMPH,Humidity,HourlyPrecipIn,Conditions,Clouds,dailyrainin,SoftwareType,DateUTC
2013-05-31 00:00:00,60.9,59.4,30.10,SW,224,0.0,2.0,95,0.00,OVC,,0.00,WeatherDisplay:10.37,2013-05-31 04:00:00,
2013-05-31 01:00:00,60.1,58.9,30.11,SW,224,0.0,1.0,96,0.00,OVC,,0.00,WeatherDisplay:10.37,2013-05-31 05:00:00,
2013-05-31 02:00:00,61.0,59.9,30.11,WSW,238,0.0,4.0,96,0.00,OVC,,0.00,WeatherDisplay:10.37,2013-05-31 06:00:00,
2013-05-31 03:00:00,61.5,60.1,30.10,West,265,0.0,5.0,95,0.00,OVC,,0.00,WeatherDisplay:10.37,2013-05-31 07:00:00,
2013-05-31 04:00:00,62.7,60.9,30.09,SSE,165,0.0,4.0,94,0.00,OVC,,0.00,WeatherDisplay:10.37,2013-05-31 08:00:00,
2013-05-31 05:00:00,63.4,61.3,30.07,WSW,256,0.0,4.0,93,0.00,OVC,,0.00,WeatherDisplay:10.37,2013-05-31 09:00:00,
2013-05-31 06:00:00,63.3,61.5,30.10,NE,53,0.0,4.0,94,0.00,OVC,,0.00,WeatherDisplay:10.37,2013-05-31 10:00:00,
2013-05-31 07:00:00,63.4,61.6,30.10,NE,53,0.0,1.0,94,0.00,OVC,,0.00,WeatherDisplay:10.37,2013-05-31 11:00:00,
2013-05-31 08:00:00,65.5,63.4,30.12,SSW,209,0.0,2.0,93,0.00,OVC,,0.00,WeatherDisplay:10.37,2013-05-31 12:00:00,
2013-05-31 09:00:00,70.4,64.2,30.13,NE,37,0.0,3.0,81,0.00,OVC,,0.00,WeatherDisplay:10.37,2013-05-31 13:00:00,
2013-05-31 10:00:00,72.7,62.0,30.13,South,170,0.0,4.0,69,0.00,OVC,,0.00,WeatherDisplay:10.37,2013-05-31 14:00:00,
2013-05-31 11:00:00,75.7,61.8,30.12,South,169,1.0,7.0,62,0.00,OVC,,0.00,WeatherDisplay:10.37,2013-05-31 15:00:00,
2013-05-31 12:00:00,76.8,60.9,30.11,SSE,156,1.0,9.0,58,0.00,OVC,,0.00,WeatherDisplay:10.37,2013-05-31 16:00:00,
2013-05-31 13:00:00,79.4,62.8,30.09,South,182,2.0,10.0,57,0.00,SCT,,0.00,WeatherDisplay:10.37,2013-05-31 17:00:00,
2013-05-31 14:00:00,80.0,61.9,30.07,SW,223,2.0,12.0,54,0.00,SCT,,0.00,WeatherDisplay:10.37,2013-05-31 18:00:00,
2013-05-31 15:00:00,80.6,63.5,30.04,South,186,3.0,12.0,56,0.00,SCT,,0.00,WeatherDisplay:10.37,2013-05-31 19:00:00,
2013-05-31 16:00:00,79.3,61.2,30.03,SW,236,2.0,12.0,54,0.00,BKN,,0.00,WeatherDisplay:10.37,2013-05-31 20:00:00,
2013-05-31 17:00:00,80.8,64.2,30.02,South,181,2.0,10.0,57,0.00,BKN,,0.00,WeatherDisplay:10.37,2013-05-31 21:00:00,
2013-05-31 18:00:00,79.8,63.2,30.01,SW,216,1.0,12.0,57,0.00,BKN,,0.00,WeatherDisplay:10.37,2013-05-31 22:00:00,
2013-05-31 19:00:00,77.5,63.5,30.00,SW,228,1.0,8.0,62,0.00,SCT,,0.00,WeatherDisplay:10.37,2013-05-31 23:00:00,
2013-05-31 20:00:00,74.4,64.4,30.01,SSE,165,0.0,8.0,71,0.00,CLR,,0.00,WeatherDisplay:10.37,2013-06-01 00:00:00,
2013-05-31 21:00:00,68.8,64.1,30.02,SSW,213,0.0,3.0,85,0.00,SCT,,0.00,WeatherDisplay:10.37,2013-06-01 01:00:00,
2013-05-31 22:00:00,65.6,62.5,30.02,SSW,213,0.0,1.0,90,0.00,CLR,,0.00,WeatherDisplay:10.37,2013-06-01 02:00:00,
2013-05-31 23:00:00,64.6,62.3,30.03,NE,44,0.0,4.0,92,0.00,CLR,,0.00,WeatherDisplay:10.37,2013-06-01 03:00:00,